DMSP 5D-2 F13 DEB, 40437

Orbit data source: Space-Track

DMSP 5D-2 F13 DEB, 40437 is space debris in SSO originally from a launch on Fri, 24 Mar 1995 UTC launched from the Air Force Western Test Range (AFWTR). Debris objects in space refer to the collection of defunct objects orbiting the Earth. Examples of debris include non-operational satellites, rocket bodies, and fragments generated from explosions, collisions, or faulty payload assembly.

Loading next visibility...
Identifier
40437, 1995-015AP
Orbit
SSO
Country
Flag of USUS
Related business
Manufacturer
Unknown
Mission
Spacecraft
Bus & Motor
Unknown
Mass
Unknown
Launch date (UTC)
1995-03-24 (31 years ago)
Launch vehicle
Unknown
Launch site
Air Force Western Test Range (AFWTR)
Object type
Payload
Rocket body
Debris
Shape & HBR
Unknown shape, 0.1 m
Radar Cross Section
Small (<0.1 m²)

Expand to show TLE details & history
Last TLE update: 10 hours ago

TLE from 10 hours ago
0 DMSP 5D-2 F13 DEB
1 40437U 95015AP  26036.92525742  .00029895  00000-0  48480-2 0  9990
2 40437  98.6645 107.8885 0010148 138.5278 221.6699 14.71086490570741
Epoch: 2026-02-05T22:12Z
TLE epoch observation values (Epoch: 2026-02-05T22:12:22.241Z)
Latitude
0.00004°
Longitude
-1.27467°
Altitude
665.925 km
Speed
7.521 km/s
True Right ascension
07h 11m 33s
True Declination
0° 00' 00"
Sunlit
Object was in full shadow at epoch
Visualization orbit readout
Latitude
Unknown
Longitude
Unknown
Altitude
Unknown
Speed
Unknown
Apparent Right ascension
Unknown
Apparent Declination
Unknown
Sunlit
N/A
Visualization observer readout
Local Sidereal Time
09:59:06
Azimuth
Unknown
Elevation
Unknown
Doppler factor
Unknown
Orbital elements
Apogee altitude
661.827 km
Perigee altitude
647.553 km
Semi-major axis
7,032.827 km
Eccentricity
0.00101
Inclination
98.6645°
RAAN
107.8885°
Arg. of periapsis
138.5278°
True anomaly
221.59266°
Mean anomaly
221.6699°
Eccentric anomaly
221.63127°
Mean motion
3.68 °/min
Orbital period
97.83 mins
BSTAR
0.004848
Loading maneuver chart data...
Computing Atmospheric mass density...

Documentation

Showing up to 5 results
|